Simultaneous Nadir Overpasses (SNOs) Predictions

Prediction of SNOs between METOP-A and TERRA Satellite Orbit:

Table of predicted SNOs for the next 14.0 days since TLE Epoch: 4/11/2016
Index Date (METOP-A) Time (METOP-A) Lat,Lon (METOP-A) SZA (METOP-A ) Date (TERRA) Time (TERRA) Lat,Lon (TERRA) SZA (TERRA ) Distance(km) Time Diff (sec)
1 04/12/2016 16:46:07 -81.32, 156.29 104.83 04/12/2016 16:46:28 -81.32, 156.14 104.83 2.65 21
2 04/12/2016 17:36:47 81.32, -36.23 75.18 04/12/2016 17:35:54 81.32, -36.18 75.16 1.05 53
3 04/15/2016 12:20:31 -81.31,-137.43 105.83 04/15/2016 12:20:43 -81.32,-137.44 105.82 0.61 12
4 04/15/2016 13:11:10 81.32, 30.42 74.23 04/15/2016 13:10:09 81.32, 30.23 74.18 3.28 61
5 04/18/2016 07:54:55 -81.31, -71.19 106.81 04/18/2016 07:54:58 -81.32, -71.06 106.79 2.24 3
6 04/
